SAS7839 ESSA-LDSP

Flight info

Callsign SAS7839
Flight time 2h 38m
Altitude 37000
Route BABAP T316 NEPVA DCT PENOR DCT BEZMI DCT XIDNA DCT MIKOV DCT INSAX DCT TISKO DCT PETOV DCT NIVES DCT NUPSO
Aircraft A319/M-SDE3FGIRWXY/LB1

Departure

Time 2026-05-07 12:25
Airport Stockholm-Arlanda Airport (ESSA)

Arrival

Time 2026-05-07 15:03
Airport Split Saint Jerome Airport (LDSP)
Time Latitude Longitude Altitude Speed Heading
2026-05-07 11:47 59.65290 17.92964 110 ft 0 kts 70°
2026-05-07 12:00 59.65290 17.92963 112 ft 0 kts 70°
2026-05-07 12:17 59.65288 17.92955 111 ft 3 kts 70°
2026-05-07 12:18 59.65279 17.92905 111 ft 4 kts 70°
2026-05-07 12:18 59.65270 17.92855 110 ft 4 kts 70°
2026-05-07 12:18 59.65261 17.92804 112 ft 4 kts 70°
2026-05-07 12:18 59.65258 17.92788 110 ft 1 kts 70°
2026-05-07 12:20 59.65258 17.92787 110 ft 0 kts 70°
2026-05-07 12:21 59.65262 17.92802 112 ft 1 kts 55°
2026-05-07 12:21 59.65279 17.92792 109 ft 5 kts 341°
2026-05-07 12:22 59.65328 17.92738 112 ft 10 kts 330°
2026-05-07 12:22 59.65395 17.92665 112 ft 13 kts 331°
2026-05-07 12:22 59.65490 17.92570 106 ft 19 kts 335°
2026-05-07 12:22 59.65611 17.92488 103 ft 17 kts 346°
2026-05-07 12:23 59.65734 17.92427 105 ft 17 kts 349°
2026-05-07 12:23 59.65851 17.92453 107 ft 18 kts
2026-05-07 12:23 59.65918 17.92307 111 ft 16 kts 280°
2026-05-07 12:23 59.65926 17.92129 115 ft 11 kts 240°
2026-05-07 12:24 59.65892 17.92105 114 ft 0 kts 191°
2026-05-07 12:24 59.65707 17.92037 109 ft 61 kts 191°
2026-05-07 12:24 59.65074 17.91808 104 ft 123 kts 190°
2026-05-07 12:24 59.64129 17.91457 473 ft 139 kts 191°
2026-05-07 12:25 59.63166 17.91120 1156 ft 141 kts 191°
2026-05-07 12:25 59.62207 17.90796 1857 ft 142 kts 187°
2026-05-07 12:25 59.61164 17.90622 2320 ft 161 kts 185°
2026-05-07 12:25 59.59970 17.90520 2673 ft 184 kts 178°
2026-05-07 12:26 59.58725 17.91563 2951 ft 215 kts 139°
2026-05-07 12:26 59.57645 17.93843 3446 ft 240 kts 133°
2026-05-07 12:26 59.56478 17.96410 4096 ft 259 kts 133°
2026-05-07 12:26 59.55253 17.99107 5077 ft 267 kts 133°
2026-05-07 12:27 59.53994 18.01864 6073 ft 273 kts 133°
2026-05-07 12:27 59.52708 18.04669 7043 ft 278 kts 133°
2026-05-07 12:27 59.51388 18.07539 7997 ft 284 kts 134°
2026-05-07 12:27 59.50046 18.10447 8932 ft 290 kts 134°
2026-05-07 12:28 59.48675 18.13412 9851 ft 296 kts 134°
2026-05-07 12:28 59.47259 18.16466 10487 ft 311 kts 135°
2026-05-07 12:28 59.45761 18.19686 10830 ft 333 kts 135°
2026-05-07 12:28 59.44172 18.23098 11477 ft 343 kts 135°
2026-05-07 12:29 59.42548 18.26583 12241 ft 349 kts 135°
2026-05-07 12:29 59.40901 18.30120 13010 ft 354 kts 135°
2026-05-07 12:29 59.39226 18.33708 13778 ft 359 kts 136°
2026-05-07 12:29 59.37526 18.37344 14466 ft 364 kts 136°
2026-05-07 12:30 59.35804 18.41023 15147 ft 368 kts 136°
2026-05-07 12:30 59.34064 18.44735 15830 ft 371 kts 136°
2026-05-07 12:30 59.32301 18.48482 16506 ft 375 kts 136°
2026-05-07 12:30 59.30518 18.52259 17201 ft 379 kts 137°
2026-05-07 12:31 59.28560 18.55709 17871 ft 378 kts 148°
2026-05-07 12:31 59.26313 18.58339 18532 ft 375 kts 160°
2026-05-07 12:31 59.23865 18.60063 19124 ft 372 kts 172°
2026-05-07 12:31 59.21324 18.60826 19722 ft 368 kts 183°
2026-05-07 12:32 59.18804 18.60679 20318 ft 366 kts 191°
2026-05-07 12:32 59.16250 18.60258 20930 ft 369 kts 191°
2026-05-07 12:32 59.13673 18.59855 21522 ft 372 kts 191°
2026-05-07 12:32 59.11079 18.59458 22103 ft 375 kts 191°
2026-05-07 12:33 59.05811 18.58642 23254 ft 382 kts 191°
2026-05-07 12:33 59.03153 18.58226 23790 ft 385 kts 191°
2026-05-07 12:33 59.00470 18.57806 24257 ft 387 kts 191°
2026-05-07 12:34 58.97800 18.57392 24714 ft 390 kts 191°
2026-05-07 12:34 58.95997 18.57115 25023 ft 392 kts 191°
2026-05-07 12:34 58.93267 18.56655 25478 ft 392 kts 194°
2026-05-07 12:34 58.90603 18.55587 25923 ft 390 kts 199°
2026-05-07 12:35 58.87942 18.54339 26382 ft 393 kts 199°
2026-05-07 12:35 58.85269 18.53088 26821 ft 395 kts 199°
2026-05-07 12:35 58.82588 18.51838 27255 ft 398 kts 199°
2026-05-07 12:35 58.79914 18.50596 27683 ft 401 kts 199°
2026-05-07 12:36 58.77190 18.49330 28121 ft 403 kts 199°
2026-05-07 12:36 58.74454 18.48056 28550 ft 406 kts 199°
2026-05-07 12:36 58.71690 18.46772 28975 ft 409 kts 199°
2026-05-07 12:36 58.68909 18.45486 29391 ft 412 kts 199°
2026-05-07 12:37 58.66103 18.44191 29802 ft 414 kts 199°
2026-05-07 12:37 58.63285 18.42893 30192 ft 417 kts 199°
2026-05-07 12:37 58.60488 18.41610 30513 ft 420 kts 199°
2026-05-07 12:37 58.57629 18.40302 30827 ft 422 kts 199°
2026-05-07 12:38 58.54761 18.38989 31142 ft 425 kts 199°
2026-05-07 12:38 58.51875 18.37666 31447 ft 427 kts 199°
2026-05-07 12:38 58.48970 18.36335 31758 ft 429 kts 199°
2026-05-07 12:38 58.46070 18.35009 32192 ft 428 kts 198°
2026-05-07 12:39 58.43164 18.33684 32638 ft 427 kts 198°
2026-05-07 12:39 58.40307 18.32386 33064 ft 426 kts 198°
2026-05-07 12:39 58.37424 18.31083 33499 ft 425 kts 198°
2026-05-07 12:39 58.34538 18.29782 33937 ft 424 kts 198°
2026-05-07 12:40 58.31661 18.28486 34323 ft 424 kts 198°
2026-05-07 12:40 58.28791 18.27193 34669 ft 423 kts 198°
2026-05-07 12:40 58.25920 18.25899 35010 ft 423 kts 198°
2026-05-07 12:40 58.23089 18.24623 35329 ft 423 kts 198°
2026-05-07 12:41 58.20226 18.23332 35650 ft 422 kts 198°
2026-05-07 12:41 58.17354 18.22040 35956 ft 422 kts 198°
2026-05-07 12:41 58.14488 18.20752 36259 ft 422 kts 198°
2026-05-07 12:41 58.11633 18.19475 36555 ft 422 kts 198°
2026-05-07 12:42 58.08798 18.18211 36844 ft 421 kts 198°
2026-05-07 12:42 58.05937 18.16935 37057 ft 422 kts 198°
2026-05-07 12:42 58.00213 18.14395 37105 ft 421 kts 198°
2026-05-07 12:43 57.94505 18.11864 37102 ft 420 kts 198°
2026-05-07 12:43 57.88834 18.09363 37099 ft 420 kts 198°
2026-05-07 12:44 57.83132 18.06860 37092 ft 420 kts 197°
2026-05-07 12:44 57.77428 18.04364 37089 ft 420 kts 197°
2026-05-07 12:45 57.71725 18.01867 37088 ft 420 kts 197°
2026-05-07 12:45 57.66044 17.99389 37088 ft 421 kts 197°
2026-05-07 12:46 57.60332 17.96909 37094 ft 421 kts 197°
2026-05-07 12:46 57.54616 17.94437 37096 ft 420 kts 197°
2026-05-07 12:47 57.48942 17.91986 37098 ft 420 kts 197°
2026-05-07 12:47 57.43237 17.89513 37103 ft 420 kts 197°
2026-05-07 12:48 57.37529 17.87059 37105 ft 420 kts 197°
2026-05-07 12:48 57.31830 17.84641 37105 ft 420 kts 197°
2026-05-07 12:49 57.26166 17.82241 37100 ft 419 kts 197°
2026-05-07 12:49 57.20465 17.79811 37102 ft 419 kts 197°
2026-05-07 12:50 57.14777 17.77392 37102 ft 419 kts 197°
2026-05-07 12:50 57.09092 17.74993 37100 ft 419 kts 197°
2026-05-07 12:51 57.03439 17.72624 37103 ft 418 kts 197°
2026-05-07 12:51 56.97765 17.70242 37102 ft 418 kts 197°
2026-05-07 12:52 56.92083 17.67858 37098 ft 418 kts 197°
2026-05-07 12:52 56.86402 17.65488 37099 ft 418 kts 197°
2026-05-07 12:53 56.80757 17.63148 37097 ft 418 kts 196°
2026-05-07 12:53 56.75079 17.60799 37097 ft 417 kts 196°
2026-05-07 12:54 56.69400 17.58444 37094 ft 417 kts 196°
2026-05-07 12:54 56.63758 17.56125 37091 ft 417 kts 196°
2026-05-07 12:55 56.58078 17.53804 37096 ft 417 kts 196°
2026-05-07 12:55 56.52410 17.51486 37095 ft 417 kts 196°
2026-05-07 12:56 56.46752 17.49158 37092 ft 416 kts 196°
2026-05-07 12:56 56.41130 17.46867 37087 ft 416 kts 196°
2026-05-07 12:57 56.35469 17.44581 37088 ft 416 kts 196°
2026-05-07 12:57 56.29804 17.42303 37089 ft 416 kts 196°
2026-05-07 12:58 56.24178 17.40032 37092 ft 416 kts 196°
2026-05-07 12:58 56.18527 17.37756 37094 ft 415 kts 196°
2026-05-07 12:59 56.12876 17.35498 37088 ft 415 kts 195°
2026-05-07 12:59 56.07236 17.33250 37092 ft 415 kts 195°
2026-05-07 13:00 56.01621 17.31006 37094 ft 415 kts 195°
2026-05-07 13:00 55.95982 17.28760 37095 ft 415 kts 195°
2026-05-07 13:01 55.90339 17.26532 37095 ft 414 kts 195°
2026-05-07 13:01 55.84706 17.24313 37098 ft 414 kts 195°
2026-05-07 13:02 55.79104 17.22114 37088 ft 414 kts 195°
2026-05-07 13:02 55.73462 17.19906 37090 ft 414 kts 195°
2026-05-07 13:03 55.67818 17.17703 37089 ft 414 kts 195°
2026-05-07 13:03 55.62113 17.16545 37094 ft 420 kts 180°
2026-05-07 13:04 55.56271 17.17674 37082 ft 421 kts 177°
2026-05-07 13:04 55.50440 17.18850 37081 ft 421 kts 177°
2026-05-07 13:05 55.44603 17.20019 37085 ft 421 kts 177°
2026-05-07 13:05 55.38776 17.21186 37075 ft 421 kts 177°
2026-05-07 13:06 55.32988 17.22334 37076 ft 421 kts 177°
2026-05-07 13:06 55.27164 17.23489 37075 ft 421 kts 177°
2026-05-07 13:07 55.21341 17.24643 37076 ft 420 kts 177°
2026-05-07 13:07 55.15545 17.25804 37075 ft 420 kts 177°
2026-05-07 13:08 55.09725 17.26954 37074 ft 420 kts 177°
2026-05-07 13:08 55.03919 17.28091 37068 ft 419 kts 177°
2026-05-07 13:09 54.98113 17.29225 37066 ft 419 kts 177°
2026-05-07 13:09 54.92342 17.30351 37063 ft 419 kts 177°
2026-05-07 13:10 54.86531 17.31477 37062 ft 419 kts 177°
2026-05-07 13:10 54.80771 17.32593 37056 ft 419 kts 177°
2026-05-07 13:11 54.75912 17.33537 37052 ft 419 kts 177°
2026-05-07 13:11 54.70139 17.34652 37054 ft 419 kts 177°
2026-05-07 13:12 54.64336 17.35765 37054 ft 419 kts 177°
2026-05-07 13:12 54.58565 17.36877 37060 ft 418 kts 177°
2026-05-07 13:13 54.52785 17.37987 37054 ft 418 kts 177°
2026-05-07 13:13 54.46995 17.39096 37067 ft 417 kts 177°
2026-05-07 13:14 54.41208 17.40195 37068 ft 416 kts 177°
2026-05-07 13:14 54.35500 17.40151 37070 ft 411 kts 188°
2026-05-07 13:15 54.29808 17.39234 37071 ft 410 kts 188°
2026-05-07 13:15 54.24125 17.38319 37063 ft 409 kts 188°
2026-05-07 13:16 54.18498 17.37407 37060 ft 408 kts 188°
2026-05-07 13:16 54.12836 17.36503 37055 ft 408 kts 188°
2026-05-07 13:17 54.07188 17.35601 37048 ft 407 kts 188°
2026-05-07 13:17 54.01547 17.34701 37041 ft 407 kts 187°
2026-05-07 13:18 53.95935 17.33803 37035 ft 406 kts 187°
2026-05-07 13:18 53.90293 17.32909 37032 ft 406 kts 187°
2026-05-07 13:19 53.84677 17.32026 37022 ft 406 kts 187°
2026-05-07 13:19 53.79034 17.31131 37010 ft 406 kts 187°
2026-05-07 13:20 53.73394 17.30237 37022 ft 406 kts 187°
2026-05-07 13:20 53.67786 17.29354 37014 ft 407 kts 187°
2026-05-07 13:21 53.62148 17.28468 37014 ft 407 kts 187°
2026-05-07 13:21 53.56501 17.27592 37011 ft 407 kts 187°
2026-05-07 13:22 53.50851 17.26713 37012 ft 408 kts 187°
2026-05-07 13:22 53.45186 17.25836 37011 ft 408 kts 187°
2026-05-07 13:23 53.39524 17.24961 37009 ft 408 kts 187°
2026-05-07 13:23 53.33891 17.24103 37009 ft 408 kts 187°
2026-05-07 13:24 53.28214 17.23225 37006 ft 409 kts 187°
2026-05-07 13:24 53.22539 17.22356 37007 ft 409 kts 187°
2026-05-07 13:25 53.16862 17.21484 37009 ft 409 kts 187°
2026-05-07 13:25 53.11224 17.20614 37014 ft 409 kts 187°
2026-05-07 13:26 53.05535 17.19737 37016 ft 409 kts 187°
2026-05-07 13:26 52.99872 17.18881 37010 ft 408 kts 187°
2026-05-07 13:27 52.94242 17.18036 37019 ft 408 kts 187°
2026-05-07 13:27 52.88580 17.17184 37021 ft 407 kts 187°
2026-05-07 13:28 52.82921 17.16327 37016 ft 407 kts 187°
2026-05-07 13:28 52.77281 17.15483 37013 ft 406 kts 187°
2026-05-07 13:29 52.71683 17.14642 37016 ft 406 kts 187°
2026-05-07 13:29 52.66054 17.13795 37016 ft 406 kts 187°
2026-05-07 13:30 52.60422 17.12955 37017 ft 405 kts 187°
2026-05-07 13:30 52.54801 17.12127 37017 ft 405 kts 187°
2026-05-07 13:31 52.49186 17.11289 37018 ft 404 kts 187°
2026-05-07 13:31 52.43610 17.10456 37016 ft 404 kts 187°
2026-05-07 13:32 52.37998 17.09629 37016 ft 404 kts 187°
2026-05-07 13:32 52.32400 17.08813 37013 ft 403 kts 187°
2026-05-07 13:33 52.26810 17.07978 37009 ft 403 kts 187°
2026-05-07 13:33 52.21253 17.07160 37008 ft 403 kts 187°
2026-05-07 13:34 52.12861 17.05940 37001 ft 403 kts 187°
2026-05-07 13:35 52.07266 17.05131 36993 ft 402 kts 187°
2026-05-07 13:35 52.01718 17.04327 36993 ft 402 kts 187°
2026-05-07 13:36 51.96132 17.03502 36989 ft 402 kts 187°
2026-05-07 13:36 51.90552 17.02688 36990 ft 402 kts 187°
2026-05-07 13:37 51.84964 17.01883 36988 ft 402 kts 187°
2026-05-07 13:37 51.79426 17.01102 36987 ft 402 kts 187°
2026-05-07 13:38 51.73846 17.00308 36988 ft 402 kts 187°
2026-05-07 13:38 51.68267 16.99515 36986 ft 402 kts 187°
2026-05-07 13:39 51.62680 16.98736 36983 ft 402 kts 187°
2026-05-07 13:39 51.57137 16.97989 36983 ft 402 kts 187°
2026-05-07 13:40 51.51553 16.97235 36982 ft 402 kts 187°
2026-05-07 13:40 51.46007 16.96473 36978 ft 401 kts 187°
2026-05-07 13:41 51.40432 16.95702 36978 ft 401 kts 187°
2026-05-07 13:41 51.34988 16.94966 36980 ft 401 kts 187°
2026-05-07 13:42 51.29414 16.94217 36985 ft 402 kts 187°
2026-05-07 13:42 51.23831 16.93460 36990 ft 402 kts 187°
2026-05-07 13:43 51.18290 16.92725 36993 ft 402 kts 187°
2026-05-07 13:43 51.12705 16.91984 36994 ft 402 kts 187°
2026-05-07 13:44 51.07125 16.91231 36999 ft 402 kts 187°
2026-05-07 13:44 51.01549 16.90484 36998 ft 401 kts 187°
2026-05-07 13:45 50.95977 16.89750 36994 ft 401 kts 187°
2026-05-07 13:45 50.90443 16.89018 36986 ft 401 kts 187°
2026-05-07 13:46 50.84876 16.88271 36977 ft 400 kts 187°
2026-05-07 13:46 50.79347 16.87534 36964 ft 400 kts 187°
2026-05-07 13:47 50.73802 16.86806 36956 ft 399 kts 187°
2026-05-07 13:47 50.68252 16.86076 36953 ft 399 kts 187°
2026-05-07 13:48 50.62733 16.85349 36949 ft 399 kts 187°
2026-05-07 13:48 50.58092 16.84747 36943 ft 398 kts 187°
2026-05-07 13:49 50.52593 16.84032 36936 ft 398 kts 187°
2026-05-07 13:49 50.47054 16.83313 36930 ft 398 kts 187°
2026-05-07 13:50 50.41520 16.82594 36928 ft 398 kts 187°
2026-05-07 13:50 50.35082 16.81737 36928 ft 399 kts 187°
2026-05-07 13:51 50.30473 16.81138 36926 ft 399 kts 187°
2026-05-07 13:51 50.24924 16.80425 36921 ft 399 kts 187°
2026-05-07 13:52 50.19425 16.79713 36927 ft 399 kts 187°
2026-05-07 13:52 50.13877 16.79002 36927 ft 399 kts 187°
2026-05-07 13:53 50.08374 16.78304 36931 ft 398 kts 187°
2026-05-07 13:53 50.02840 16.77599 36931 ft 398 kts 187°
2026-05-07 13:54 49.97300 16.76895 36926 ft 398 kts 187°
2026-05-07 13:54 49.91775 16.76191 36926 ft 398 kts 187°
2026-05-07 13:55 49.86270 16.75492 36928 ft 398 kts 187°
2026-05-07 13:55 49.80733 16.74782 36929 ft 399 kts 187°
2026-05-07 13:56 49.75196 16.74082 36928 ft 399 kts 187°
2026-05-07 13:56 49.69652 16.73395 36928 ft 399 kts 187°
2026-05-07 13:57 49.64142 16.72700 36926 ft 399 kts 187°
2026-05-07 13:57 49.58572 16.71989 37037 ft 403 kts 187°
2026-05-07 13:57 49.55765 16.71638 37214 ft 405 kts 187°
2026-05-07 13:58 49.52942 16.71286 37448 ft 406 kts 187°
2026-05-07 13:58 49.50119 16.70936 37685 ft 407 kts 187°
2026-05-07 13:58 49.47318 16.70587 37928 ft 408 kts 187°
2026-05-07 13:58 49.44483 16.70232 38165 ft 409 kts 187°
2026-05-07 13:59 49.41627 16.69874 38395 ft 410 kts 187°
2026-05-07 13:59 49.38771 16.69517 38617 ft 412 kts 187°
2026-05-07 13:59 49.35906 16.69159 38803 ft 412 kts 187°
2026-05-07 13:59 49.33040 16.68802 38910 ft 414 kts 187°
2026-05-07 14:00 49.30199 16.68449 38942 ft 414 kts 187°
2026-05-07 14:00 49.24448 16.67739 38942 ft 414 kts 187°
2026-05-07 14:01 49.18694 16.67029 38946 ft 414 kts 187°
2026-05-07 14:01 49.12967 16.66319 38948 ft 414 kts 187°
2026-05-07 14:02 49.07214 16.65608 38945 ft 414 kts 187°
2026-05-07 14:02 49.01460 16.64907 38940 ft 415 kts 187°
2026-05-07 14:03 48.95700 16.64207 38947 ft 415 kts 187°
2026-05-07 14:03 48.89968 16.63502 38947 ft 415 kts 187°
2026-05-07 14:04 48.84193 16.62797 38940 ft 415 kts 187°
2026-05-07 14:04 48.78436 16.62051 38942 ft 413 kts 192°
2026-05-07 14:05 48.72843 16.60337 38950 ft 411 kts 194°
2026-05-07 14:05 48.67229 16.58562 38948 ft 411 kts 194°
2026-05-07 14:06 48.61643 16.56801 38952 ft 411 kts 194°
2026-05-07 14:06 48.56042 16.55041 38949 ft 411 kts 194°
2026-05-07 14:07 48.50431 16.53284 38947 ft 412 kts 194°
2026-05-07 14:07 48.44836 16.51540 38947 ft 412 kts 194°
2026-05-07 14:08 48.39203 16.49790 38953 ft 413 kts 194°
2026-05-07 14:08 48.33565 16.48039 38956 ft 413 kts 194°
2026-05-07 14:09 48.27922 16.46278 38959 ft 414 kts 194°
2026-05-07 14:09 48.22306 16.44546 38960 ft 414 kts 194°
2026-05-07 14:10 48.16641 16.42796 38961 ft 415 kts 194°
2026-05-07 14:10 48.10979 16.41060 38961 ft 415 kts 194°
2026-05-07 14:11 48.05307 16.39315 38965 ft 415 kts 194°
2026-05-07 14:11 47.99676 16.37583 38960 ft 415 kts 194°
2026-05-07 14:12 47.94007 16.35847 38966 ft 415 kts 194°
2026-05-07 14:12 47.88337 16.34108 38968 ft 415 kts 194°
2026-05-07 14:13 47.82707 16.32391 38970 ft 415 kts 194°
2026-05-07 14:13 47.77041 16.30675 38970 ft 414 kts 194°
2026-05-07 14:14 47.71396 16.28958 38970 ft 413 kts 194°
2026-05-07 14:14 47.65746 16.27249 38971 ft 413 kts 194°
2026-05-07 14:15 47.60148 16.25568 38968 ft 413 kts 194°
2026-05-07 14:15 47.54517 16.23871 38961 ft 412 kts 194°
2026-05-07 14:16 47.48888 16.22172 38960 ft 412 kts 194°
2026-05-07 14:16 47.43261 16.20482 38955 ft 412 kts 194°
2026-05-07 14:17 47.37676 16.18811 38947 ft 412 kts 194°
2026-05-07 14:17 47.32051 16.17129 38940 ft 412 kts 194°
2026-05-07 14:18 47.26420 16.15456 38938 ft 412 kts 194°
2026-05-07 14:18 47.20773 16.13776 38936 ft 413 kts 195°
2026-05-07 14:19 47.15133 16.12097 38937 ft 413 kts 195°
2026-05-07 14:19 47.09526 16.10442 38936 ft 413 kts 194°
2026-05-07 14:20 47.03872 16.08773 38933 ft 414 kts 195°
2026-05-07 14:20 46.98209 16.07131 38936 ft 414 kts 194°
2026-05-07 14:21 46.92556 16.05626 38935 ft 415 kts 194°
2026-05-07 14:21 46.86852 16.04139 38937 ft 415 kts 194°
2026-05-07 14:22 46.81156 16.02635 38935 ft 415 kts 194°
2026-05-07 14:22 46.75465 16.01117 38941 ft 415 kts 194°
2026-05-07 14:23 46.69771 15.99600 38938 ft 416 kts 194°
2026-05-07 14:23 46.63999 15.99000 38940 ft 420 kts 186°
2026-05-07 14:24 46.58144 15.98759 38939 ft 421 kts 186°
2026-05-07 14:24 46.52275 15.98522 38942 ft 421 kts 186°
2026-05-07 14:25 46.46417 15.98279 38947 ft 421 kts 186°
2026-05-07 14:25 46.40548 15.98022 38950 ft 421 kts 186°
2026-05-07 14:26 46.34723 15.97776 38962 ft 421 kts 186°
2026-05-07 14:26 46.28863 15.97527 38972 ft 421 kts 186°
2026-05-07 14:27 46.23989 15.97226 38979 ft 420 kts 187°
2026-05-07 14:27 46.17189 15.96745 38993 ft 420 kts 187°
2026-05-07 14:28 46.12296 15.96411 39000 ft 420 kts 187°
2026-05-07 14:28 46.06454 15.96036 39004 ft 420 kts 187°
2026-05-07 14:29 46.00650 15.95667 39009 ft 420 kts 187°
2026-05-07 14:29 45.94810 15.95302 39007 ft 419 kts 187°
2026-05-07 14:30 45.88975 15.94936 39012 ft 419 kts 187°
2026-05-07 14:30 45.83138 15.94564 39018 ft 419 kts 187°
2026-05-07 14:31 45.77303 15.94192 39015 ft 419 kts 187°
2026-05-07 14:31 45.71480 15.93821 39005 ft 419 kts 187°
2026-05-07 14:32 45.65692 15.93452 38939 ft 419 kts 187°
2026-05-07 14:32 45.62774 15.93268 38713 ft 418 kts 187°
2026-05-07 14:32 45.59876 15.93091 38446 ft 417 kts 187°
2026-05-07 14:32 45.56977 15.92916 38165 ft 416 kts 187°
2026-05-07 14:33 45.54083 15.92739 37881 ft 415 kts 188°
2026-05-07 14:33 45.51195 15.92557 37607 ft 415 kts 188°
2026-05-07 14:33 45.48307 15.92373 37338 ft 415 kts 188°
2026-05-07 14:33 45.45421 15.92188 37067 ft 414 kts 188°
2026-05-07 14:34 45.42541 15.92004 36803 ft 414 kts 188°
2026-05-07 14:34 45.39665 15.91824 36536 ft 414 kts 188°
2026-05-07 14:34 45.36789 15.91646 36274 ft 414 kts 188°
2026-05-07 14:34 45.33911 15.91467 36020 ft 413 kts 188°
2026-05-07 14:35 45.31047 15.91288 35765 ft 411 kts 188°
2026-05-07 14:35 45.28197 15.91112 35515 ft 409 kts 188°
2026-05-07 14:35 45.25364 15.90938 35268 ft 406 kts 188°
2026-05-07 14:35 45.22544 15.90766 35023 ft 403 kts 188°
2026-05-07 14:36 45.19784 15.90602 34660 ft 399 kts 189°
2026-05-07 14:36 45.17006 15.90450 34193 ft 398 kts 188°
2026-05-07 14:36 45.14246 15.90311 33685 ft 396 kts 188°
2026-05-07 14:36 45.11505 15.90179 33232 ft 392 kts 188°
2026-05-07 14:37 45.08792 15.90048 32779 ft 388 kts 188°
2026-05-07 14:37 45.03441 15.89781 31871 ft 380 kts 188°
2026-05-07 14:37 45.00805 15.89648 31434 ft 377 kts 188°
2026-05-07 14:38 44.98191 15.89517 31003 ft 373 kts 187°
2026-05-07 14:38 44.95607 15.89385 30581 ft 370 kts 187°
2026-05-07 14:38 44.93039 15.89251 30162 ft 366 kts 187°
2026-05-07 14:38 44.90536 15.89121 29716 ft 363 kts 187°
2026-05-07 14:39 44.88031 15.88993 29321 ft 358 kts 187°
2026-05-07 14:39 44.85551 15.88865 28928 ft 354 kts 187°
2026-05-07 14:39 44.83098 15.88739 28558 ft 351 kts 187°
2026-05-07 14:39 44.80665 15.88614 28186 ft 348 kts 187°
2026-05-07 14:40 44.78259 15.88487 27834 ft 343 kts 188°
2026-05-07 14:40 44.75913 15.88284 27741 ft 332 kts 189°
2026-05-07 14:40 44.73594 15.87996 27668 ft 341 kts 191°
2026-05-07 14:40 44.71173 15.87645 27588 ft 358 kts 191°
2026-05-07 14:41 44.68637 15.87267 27508 ft 375 kts 191°
2026-05-07 14:41 44.65968 15.86879 27421 ft 392 kts 190°
2026-05-07 14:41 44.63205 15.86500 27326 ft 405 kts 190°
2026-05-07 14:41 44.60378 15.86134 27233 ft 410 kts 189°
2026-05-07 14:42 44.57559 15.85782 27143 ft 412 kts 189°
2026-05-07 14:42 44.54699 15.85429 27050 ft 413 kts 189°
2026-05-07 14:42 44.51839 15.85072 26950 ft 413 kts 189°
2026-05-07 14:42 44.48968 15.84710 26858 ft 414 kts 189°
2026-05-07 14:43 44.46096 15.84341 26761 ft 414 kts 189°
2026-05-07 14:43 44.43216 15.83968 26667 ft 415 kts 189°
2026-05-07 14:43 44.40341 15.83596 26571 ft 415 kts 190°
2026-05-07 14:43 44.37464 15.83223 26480 ft 415 kts 190°
2026-05-07 14:44 44.34584 15.82853 26380 ft 416 kts 190°
2026-05-07 14:44 44.31703 15.82483 26286 ft 416 kts 189°
2026-05-07 14:44 44.28814 15.82112 26194 ft 417 kts 190°
2026-05-07 14:44 44.25924 15.81742 26108 ft 417 kts 190°
2026-05-07 14:45 44.23024 15.81370 26011 ft 417 kts 190°
2026-05-07 14:45 44.20129 15.81000 25920 ft 418 kts 190°
2026-05-07 14:45 44.17271 15.80636 25827 ft 418 kts 190°
2026-05-07 14:45 44.14369 15.80267 25735 ft 418 kts 190°
2026-05-07 14:46 44.11467 15.79898 25643 ft 416 kts 190°
2026-05-07 14:46 44.08586 15.79532 25554 ft 414 kts 190°
2026-05-07 14:46 44.05717 15.79165 25461 ft 413 kts 190°
2026-05-07 14:46 44.02841 15.78795 25368 ft 412 kts 190°
2026-05-07 14:47 44.00022 15.78432 25275 ft 412 kts 190°
2026-05-07 14:47 43.97161 15.78066 25017 ft 412 kts 190°
2026-05-07 14:47 43.94320 15.77707 24396 ft 408 kts 190°
2026-05-07 14:47 43.91497 15.77351 23641 ft 406 kts 190°
2026-05-07 14:48 43.88689 15.76999 22807 ft 403 kts 190°
2026-05-07 14:48 43.85913 15.76654 22066 ft 398 kts 189°
2026-05-07 14:48 43.83160 15.76310 21332 ft 394 kts 189°
2026-05-07 14:48 43.80433 15.75969 20607 ft 391 kts 189°
2026-05-07 14:49 43.77761 15.75631 19896 ft 389 kts 189°
2026-05-07 14:49 43.75063 15.75289 19174 ft 388 kts 189°
2026-05-07 14:49 43.72366 15.74945 18456 ft 389 kts 189°
2026-05-07 14:49 43.69669 15.74601 17686 ft 388 kts 188°
2026-05-07 14:50 43.66978 15.74263 16993 ft 385 kts 188°
2026-05-07 14:50 43.64321 15.73932 16354 ft 381 kts 188°
2026-05-07 14:50 43.61721 15.73608 15736 ft 376 kts 188°
2026-05-07 14:50 43.59122 15.73283 15124 ft 371 kts 188°
2026-05-07 14:51 43.56560 15.72966 14519 ft 366 kts 188°
2026-05-07 14:51 43.54058 15.72656 13924 ft 362 kts 188°
2026-05-07 14:51 43.51554 15.72343 13262 ft 359 kts 188°
2026-05-07 14:51 43.49075 15.72029 12629 ft 356 kts 188°
2026-05-07 14:52 43.46620 15.71721 11984 ft 353 kts 188°
2026-05-07 14:52 43.44178 15.71414 11337 ft 350 kts 188°
2026-05-07 14:52 43.41775 15.71112 10999 ft 339 kts 188°
2026-05-07 14:52 43.39487 15.70830 10871 ft 322 kts 188°
2026-05-07 14:53 43.37303 15.70562 10745 ft 307 kts 188°
2026-05-07 14:53 43.35217 15.70310 10627 ft 295 kts 187°
2026-05-07 14:53 43.33187 15.70398 10396 ft 291 kts 174°
2026-05-07 14:53 43.31258 15.71134 10156 ft 292 kts 161°
2026-05-07 14:54 43.29476 15.72499 9920 ft 295 kts 147°
2026-05-07 14:54 43.27945 15.74394 9796 ft 297 kts 138°
2026-05-07 14:54 43.26478 15.76389 9649 ft 297 kts 138°
2026-05-07 14:54 43.25270 15.78694 9524 ft 302 kts 115°
2026-05-07 14:55 43.24877 15.81549 8934 ft 313 kts 85°
2026-05-07 14:55 43.25573 15.84322 8665 ft 305 kts 56°
2026-05-07 14:55 43.26915 15.86492 8113 ft 299 kts 44°
2026-05-07 14:55 43.28366 15.88535 7514 ft 297 kts 44°
2026-05-07 14:56 43.29812 15.90536 6972 ft 293 kts 44°
2026-05-07 14:56 43.31247 15.92516 6438 ft 289 kts 44°
2026-05-07 14:56 43.32654 15.94465 5982 ft 282 kts 45°
2026-05-07 14:56 43.34002 15.96340 5745 ft 278 kts 45°
2026-05-07 14:57 43.35352 15.98228 5492 ft 274 kts 46°
2026-05-07 14:57 43.36684 16.00100 5201 ft 271 kts 46°
2026-05-07 14:57 43.38010 16.01894 4876 ft 264 kts 43°
2026-05-07 14:57 43.39267 16.03669 4546 ft 253 kts 51°
2026-05-07 14:58 43.40344 16.05530 4214 ft 244 kts 55°
2026-05-07 14:58 43.41359 16.07360 3885 ft 235 kts 56°
2026-05-07 14:58 43.42332 16.09100 3582 ft 223 kts 56°
2026-05-07 14:58 43.43246 16.10730 3303 ft 213 kts 57°
2026-05-07 14:59 43.44132 16.12312 3033 ft 204 kts 59°
2026-05-07 14:59 43.44985 16.13834 2765 ft 198 kts 59°
2026-05-07 14:59 43.45813 16.15315 2473 ft 190 kts 60°
2026-05-07 14:59 43.46600 16.16717 2236 ft 179 kts 60°
2026-05-07 15:00 43.47337 16.18033 2004 ft 167 kts 61°
2026-05-07 15:00 43.48030 16.19275 1772 ft 161 kts 60°
2026-05-07 15:00 43.48705 16.20485 1560 ft 158 kts 61°
2026-05-07 15:00 43.49362 16.21661 1350 ft 148 kts 60°
2026-05-07 15:01 43.49955 16.22719 1157 ft 131 kts 58°
2026-05-07 15:01 43.50490 16.23678 980 ft 123 kts 55°
2026-05-07 15:01 43.51006 16.24605 817 ft 121 kts 51°
2026-05-07 15:01 43.51517 16.25525 652 ft 120 kts 51°
2026-05-07 15:02 43.52027 16.26443 473 ft 121 kts 50°
2026-05-07 15:02 43.52541 16.27353 346 ft 123 kts 50°
2026-05-07 15:02 43.53062 16.28295 168 ft 124 kts 51°
2026-05-07 15:02 43.53560 16.29191 83 ft 101 kts 52°
2026-05-07 15:03 43.53849 16.29716 76 ft 54 kts 53°
2026-05-07 15:03 43.54025 16.30032 64 ft 17 kts 53°
2026-05-07 15:03 43.53998 16.30096 61 ft 12 kts 191°
2026-05-07 15:03 43.53920 16.30066 68 ft 11 kts 199°
2026-05-07 15:04 43.53880 16.30013 65 ft 13 kts 233°
2026-05-07 15:04 43.53822 16.29906 61 ft 15 kts 233°
2026-05-07 15:04 43.53777 16.29895 64 ft 8 kts 120°
2026-05-07 15:04 43.53761 16.29941 64 ft 1 kts 114°